Regional Weather Roundup
Issued by NWS

Home | Current Version | Previous Version | Text Only | Print | Product List | Glossary On
Versions: 1 2 3 4 5 6 7 8 9 10 11 12 13 14 15 16 17 18 19 20 21 22 23 24 25 26 27 28 29 30 31 32 33 34 35 36 37 38 39 40 41 42 43 44 45 46 47 48 49 50
000
ASUS43 KMPX 220710
RWRMN
WEATHER ROUNDUP FOR MINNESOTA
NATIONAL WEATHER SERVICE TWIN CITIES/CHANHASSEN MN
200 AM CDT FRI AUG 22 2014


NOTE: "FAIR" INDICATES FEW OR NO CLOUDS BELOW 12,000 FEET WITH NO
SIGNIFICANT WEATHER AND/OR OBSTRUCTIONS TO VISIBILITY. N/A MEANS
CURRENT SKY AND/OR WEATHER CONDITIONS ARE NOT AVAILABLE.

MNZ060>063-068>070-220800-
   Twin Cities Metro

CITY           SKY/WX    TMP DP  RH WIND       PRES   REMARKS
TWIN CITIES    CLOUDY    73  72  96 NW7       29.85F
ST PAUL        CLOUDY    72  71  97 NW9       29.85S
CRYSTAL        PTCLDY    72  69  90 CALM      29.84F FOG
BLAINE         MOCLDY    73  72  94 N3        29.85F
LAKEVILLE      CLOUDY    72  72 100 W5        29.86S FOG
EDEN PRAIRIE   PTCLDY    72  72 100 N5        29.84F FOG
SOUTH ST PAUL  CLOUDY    73  72  94 NW7       29.85S FOG
LAKE ELMO      FOG       72  72 100 NW3       29.86S VSB 1/4
$$
MNZ001>005-007-008-013>017-022>024-027-028-220800-
   Northwest Minnesota

CITY           SKY/WX    TMP DP  RH WIND       PRES   REMARKS
BEMIDJI        CLOUDY    67  66  95 E5        29.92R
HALLOCK        DRIZZLE   66  64  94 N5        29.90S
ROSEAU         PTCLDY    66  63  88 CALM      29.91S
WARROAD        CLOUDY    68  64  88 E5        29.91F
THIEF RVR FALL CLOUDY    68  66  94 CALM      29.90S
CROOKSTON      PTCLDY    70  68  94 CALM      29.89S
FOSSTON        CLOUDY    66  63  88 CALM      29.91S
DETROIT LAKES  CLOUDY    68  68 100 CALM      29.92R
MOORHEAD       FOG       66  66 100 CALM      29.89R VSB 1/2
PARK RAPIDS    CLOUDY    68  67  96 NE3       29.91S FOG
MAHNOMEN       CLOUDY    68  67  98 E3        29.90S
$$
MNZ006-009>011-018-025>026-220800-
   North Central Minnesota

CITY           SKY/WX    TMP DP  RH WIND       PRES   REMARKS
BAUDETTE       CLOUDY    66  63  90 E5        29.91S
FLAG ISLAND    PTCLDY    66  63  88 CALM      29.91S
INTL FALLS     CLOUDY    64  60  87 CALM      29.93S
WASKISH        CLOUDY    66  64  94 CALM      29.92R
BIG FORK       CLOUDY    64  63  94 CALM      29.93S
LONGVILLE      CLOUDY    66  64  94 CALM      29.91S FOG
GRAND RAPIDS   CLOUDY    63  61  94 SE3       29.92S
CRANE LAKE     MOCLDY    57  57 100 CALM      29.95S
ORR            CLOUDY    63  57  82 CALM      29.91S
COOK           CLOUDY    63  61  94 CALM      29.93F
WALKER         CLOUDY    66  65  96 CALM      29.92R
$$
MNZ012-019>021-037-220800-
   Northeast Minnesota

CITY           SKY/WX    TMP DP  RH WIND       PRES   REMARKS
DULUTH         FOG       63  60  90 E7        29.91S VSB 3/4
ELY            CLOUDY    63  57  82 E3        29.94S
HIBBING        CLOUDY    65  60  84 CALM      29.92S
EVELETH        CLOUDY    63  61  94 CALM      29.93F
DULUTH HARBOR  CLOUDY    61  61 100 NE18      29.91S
TWO HARBORS    CLOUDY    61  55  82 NE7       29.90S HAZE
SILVER BAY     CLOUDY    59  59 100 NE7       29.91F
GRAND MARAIS     N/A     61  59  93 E8        29.93F
G MARAIS ARPRT CLOUDY    59  55  88 NE5       29.98F
$$
MNZ029>031-032-039>041-046>048-054>057-064-220800-
   West Central Minnesota

CITY           SKY/WX    TMP DP  RH WIND       PRES   REMARKS
FERGUS FALLS   PTCLDY    66  66 100 CALM      29.88S FOG
WHEATON        FOG       64  63  94 CALM      29.89S VSB<1/4
MORRIS         FOG       66  66 100 CALM      29.87S VSB 1/4
ALEXANDRIA     CLOUDY    68  67  96 NE3       29.91R
ELBOW LAKE     FAIR      68  67  98 E5        29.88S
WADENA         CLOUDY    66  66 100 CALM      29.90S FOG
GLENWOOD       MOCLDY    68  66  94 CALM      29.90S FOG
APPLETON       FOG       68  64  88 W3        29.87S VSB 1/4
BENSON         FOG       64  64 100 CALM      29.88R VSB 1/4
ORTONVILLE     PTCLDY    68  66  94 CALM      29.88S FOG
MADISON        FOG       68  66  94 W6        29.88S VSB 1
WILLMAR        FOG       70  66  88 NE3       29.89S VSB 1/4
$$
MNZ033>034-036-042>043-049>051-058-059-220800-
   Central Minnesota

CITY           SKY/WX    TMP DP  RH WIND       PRES   REMARKS
ST CLOUD       FOG       72  70  93 CALM      29.87S VSB 1/4
SAUK CENTRE    CLOUDY    69  69  99 CALM      29.89S FOG
PAYNESVILLE    FOG       67  67 100 CALM      29.89S VSB 1/4
AITKIN         CLOUDY    64  61  88 CALM      29.89S HAZE
PINE RIVER     DRIZZLE   64  64 100 CALM      29.95S
BRAINERD       FOG       64  64 100 NE3       29.90F VSB 1
STAPLES        FOG       66  66 100 CALM      29.90S VSB 1/2
LONG PRAIRIE   FOG       68  68 100 CALM      29.90S VSB 1/4
LITTLE FALLS   CLOUDY    66  64  94 CALM      29.89S FOG
LITCHFIELD     CLOUDY    72  72 100 CALM      29.88S FOG
BUFFALO        FOG       69  67  93 CALM      29.87F VSB 1/2
MAPLE LAKE     FOG       69  68  98 CALM      29.88S VSB 1/4
$$
MNZ037-044-045-052-053-220800-
   East Central Minnesota

CITY           SKY/WX    TMP DP  RH WIND       PRES   REMARKS
PRINCETON      CLOUDY    70  68  94 N6        29.87S FOG
MORA           CLOUDY    63  63 100 CALM      29.89F FOG
CAMBRIDGE      MOCLDY    70  61  73 CALM      29.85F
RUSH CITY      CLOUDY    66  64  94 N5        29.87S
MOOSE LAKE     HVY RAIN  61  59  94 NE5       29.88S
HINCKLEY       CLOUDY    63  63 100 N6        29.88S FOG
CLOQUET        CLOUDY    61  61 100 E7        29.91S FOG
MCGREGOR       CLOUDY    63  61  94 CALM      29.91S
$$
MNZ071>073-080-081-089-090-097-098-220800-
   Southwest Minnesota

CITY           SKY/WX    TMP DP  RH WIND       PRES   REMARKS
MONTEVIDEO     FOG       70  68  94 CALM      29.88S VSB 3/4
GRANITE FALLS  MOCLDY    69  69 100 NW3       29.88F FOG
CANBY          CLEAR     67  65  96 W3        29.90R
MARSHALL       CLEAR     66  64  94 W5        29.88R
REDWOOD FALLS  FOG       71  71 100 CALM      29.86F VSB 1/4
OLIVIA         FOG       70  68  94 CALM      29.86F VSB 1/2
PIPESTONE      CLEAR     70  66  88 N3        29.91S
WINDOM         PTCLDY    72  70  94 N5        29.89S
WORTHINGTON    CLEAR     68  10  10 N5        29.91S
JACKSON        PTCLDY    66  63  88 CALM      29.90R
TRACY          CLEAR     71  68  92 CALM      29.89S
SLAYTON        CLEAR     66  66  99 CALM      29.92S
$$
MNZ065>067-074>077-082>085-091>093-220800-
   South Central Minnesota

CITY           SKY/WX    TMP DP  RH WIND       PRES   REMARKS
MANKATO        MOCLDY    73  70  88 CALM      29.86F
NEW ULM        FOG       70  70 100 CALM      29.86F VSB<1/4
ST JAMES       PTCLDY    70  66  88 CALM      29.88S
FAIRMONT       PTCLDY    68  63  83 MISG      29.87F
GLENCOE        CLOUDY    73  70  91 N3        29.86F FOG
FARIBAULT      HAZE      73  68  83 CALM      29.86F VSB 3/4
OWATONNA       CLEAR     73  72  94 CALM      29.87S FOG
WASECA         FOG       72  68  88 CALM      29.88F VSB 1/4
ALBERT LEA     CLEAR     75  73  94 SW3       29.87F
$$
MNZ078>079-086>088-094>096-220800-
   Southeast Minnesota

CITY           SKY/WX    TMP DP  RH WIND       PRES   REMARKS
ROCHESTER      CLEAR     72  70  93 MISG      29.88F FOG
RED WING       CLEAR     75  72  88 S3        29.83F
STANTON        MOCLDY    74  72  91 CALM      29.83F
DODGE CENTER   PTCLDY    73  72  94 SW5       29.87F
WINONA         PTCLDY    73  72  94 CALM      29.86F
AUSTIN         CLEAR     72  72 100 SE1       29.87F
PRESTON        CLEAR     70  71 100 S6        29.89F FOG
$$
ABBREVIATIONS USED IN REMARKS
   TC - TEMPERATURES IN CELSIUS
  WCI - WIND CHILL INDEX
   HX - HEAT INDEX
  VSB - VISIBILITY
$$



USA.gov is the U.S. government's official web portal to all federal, state and local government web resources and services.